| time (UTC) | temp C | wind direction | speed KPH | gust KPH | rain 1hr cm | rain 24hr cm | rain mn cm | humidity % | barometer mb |
| 20260509034350 | 11 | 212 | 0.0 | 1.6 | 0.00 | 0.00 | 0.00 | 82 | 1014.0 |
| 20260509033848 | 11 | 212 | 0.0 | 3.2 | 0.00 | 0.00 | 0.00 | 82 | 1014.0 |
| 20260509033349 | 11 | 212 | 0.0 | 3.2 | 0.00 | 0.00 | 0.00 | 82 | 1013.9 |
| 20260509032848 | 11 | 212 | 0.0 | 3.2 | 0.00 | 0.00 | 0.00 | 82 | 1013.9 |
| 20260509032347 | 11 | 212 | 1.6 | 6.4 | 0.00 | 0.00 | 0.00 | 82 | 1014.0 |
| 20260509032119 | 11 | 212 | 1.6 | 6.4 | 0.00 | 0.00 | 0.00 | 82 | 1014.0 |
| 20260509031342 | 11 | 212 | 1.6 | 8.0 | 0.00 | 0.00 | 0.00 | 82 | 1014.0 |
| 20260509030836 | 11 | 212 | 3.2 | 8.0 | 0.00 | 0.00 | 0.00 | 82 | 1014.0 |
| 20260509030330 | 11 | 215 | 3.2 | 8.0 | 0.00 | 0.00 | 0.00 | 82 | 1014.0 |
| 20260509025824 | 11 | 196 | 1.6 | 6.4 | 0.00 | 0.00 | 0.00 | 82 | 1014.1 |
| 20260509025323 | 11 | 181 | 1.6 | 9.7 | 0.00 | 0.00 | 0.00 | 82 | 1014.0 |
| 20260509024823 | 11 | 175 | 1.6 | 9.7 | 0.00 | 0.00 | 0.00 | 82 | 1014.0 |
| 20260509024323 | 11 | 181 | 1.6 | 4.8 | 0.00 | 0.00 | 0.00 | 82 | 1014.0 |
| 20260509023823 | 11 | 181 | 1.6 | 9.7 | 0.00 | 0.00 | 0.00 | 82 | 1014.1 |
| 20260509023323 | 11 | 180 | 1.6 | 9.7 | 0.00 | 0.00 | 0.00 | 82 | 1014.1 |
| 20260509023054 | 10 | 194 | 0.0 | 8.0 | 0.00 | 0.00 | 0.00 | 82 | 1014.1 |
| 20260509022322 | 10 | 198 | 0.0 | 8.0 | 0.00 | 0.00 | 0.00 | 82 | 1014.2 |
| 20260509021822 | 10 | 189 | 0.0 | 6.4 | 0.00 | 0.00 | 0.00 | 81 | 1014.2 |
| 20260509021322 | 10 | 203 | 0.0 | 4.8 | 0.00 | 0.00 | 0.00 | 81 | 1014.1 |
| 20260509020820 | 10 | 205 | 0.0 | 4.8 | 0.00 | 0.00 | 0.00 | 81 | 1014.2 |
| 20260509020320 | 10 | 182 | 0.0 | 3.2 | 0.00 | 0.00 | 0.00 | 81 | 1014.0 |
| 20260509020051 | 10 | 182 | 0.0 | 3.2 | 0.00 | 0.00 | 0.00 | 80 | 1013.9 |
| 20260509015321 | 10 | 172 | 0.0 | 0.0 | 0.00 | 0.00 | 0.00 | 80 | 1013.9 |
| 20260509015052 | 10 | 171 | 0.0 | 6.4 | 0.00 | 0.00 | 0.00 | 79 | 1013.9 |
| 20260509014319 | 10 | 165 | 0.0 | 6.4 | 0.00 | 0.00 | 0.00 | 78 | 1013.9 |
| 20260509013820 | 10 | 164 | 0.0 | 0.0 | 0.00 | 0.00 | 0.00 | 78 | 1013.8 |
| 20260509013322 | 10 | 164 | 0.0 | 0.0 | 0.00 | 0.00 | 0.00 | 78 | 1013.7 |
| 20260509012815 | 10 | 164 | 0.0 | 0.0 | 0.00 | 0.00 | 0.00 | 77 | 1013.6 |
| 20260509012308 | 10 | 164 | 0.0 | 0.0 | 0.00 | 0.00 | 0.00 | 77 | 1013.6 |
| 20260509011803 | 10 | 163 | 0.0 | 0.0 | 0.00 | 0.00 | 0.00 | 77 | 1013.6 |
| 20260509011257 | 11 | 164 | 0.0 | 0.0 | 0.00 | 0.00 | 0.00 | 77 | 1013.5 |
| 20260509010750 | 11 | 163 | 0.0 | 0.0 | 0.00 | 0.00 | 0.00 | 76 | 1013.4 |
| 20260509010244 | 11 | 164 | 0.0 | 0.0 | 0.00 | 0.00 | 0.00 | 76 | 1013.4 |
| 20260509005738 | 11 | 163 | 0.0 | 0.0 | 0.00 | 0.00 | 0.00 | 76 | 1013.4 |
| 20260509005232 | 11 | 163 | 0.0 | 0.0 | 0.00 | 0.00 | 0.00 | 76 | 1013.4 |
| 20260509004726 | 11 | 163 | 0.0 | 0.0 | 0.00 | 0.00 | 0.00 | 75 | 1013.3 |
| 20260509004224 | 11 | 163 | 0.0 | 1.6 | 0.00 | 0.00 | 0.00 | 75 | 1013.2 |
| 20260509003710 | 11 | 175 | 0.0 | 3.2 | 0.00 | 0.00 | 0.00 | 75 | 1013.2 |
| 20260509003204 | 11 | 171 | 0.0 | 3.2 | 0.00 | 0.00 | 0.00 | 74 | 1013.1 |
| 20260509002658 | 11 | 170 | 0.0 | 0.0 | 0.00 | 0.00 | 0.00 | 74 | 1013.1 |
| 20260509002155 | 11 | 169 | 0.0 | 0.0 | 0.00 | 0.00 | 0.00 | 74 | 1013.0 |
| 20260509002150 | 11 | 169 | 0.0 | 0.0 | 0.00 | 0.00 | 0.00 | 74 | 1013.0 |
| 20260509001643 | 11 | 169 | 0.0 | 0.0 | 0.00 | 0.00 | 0.00 | 74 | 1012.9 |
| 20260509000634 | 12 | 169 | 0.0 | 0.0 | 0.00 | 0.00 | 0.00 | 73 | 1012.8 |
| 20260509000128 | 12 | 169 | 0.0 | 0.0 | 0.00 | 0.00 | 0.00 | 72 | 1012.8 |
| 20260508235622 | 12 | 169 | 0.0 | 8.0 | 0.00 | 0.00 | 0.00 | 72 | 1012.7 |
| 20260508235117 | 12 | 169 | 0.0 | 8.0 | 0.00 | 0.00 | 0.00 | 71 | 1012.7 |
| 20260508234610 | 12 | 166 | 0.0 | 1.6 | 0.00 | 0.00 | 0.00 | 71 | 1012.5 |
| 20260508234105 | 12 | 167 | 0.0 | 1.6 | 0.00 | 0.00 | 0.00 | 71 | 1012.5 |
| 20260508233558 | 12 | 161 | 0.0 | 6.4 | 0.00 | 0.00 | 0.00 | 71 | 1012.4 |
| 20260508233059 | 12 | 161 | 0.0 | 6.4 | 0.00 | 0.00 | 0.00 | 71 | 1012.3 |
| 20260508232559 | 12 | 156 | 0.0 | 1.6 | 0.00 | 0.00 | 0.00 | 70 | 1012.3 |
| 20260508232058 | 13 | 155 | 0.0 | 1.6 | 0.00 | 0.00 | 0.00 | 70 | 1012.3 |
| 20260508231555 | 13 | 155 | 0.0 | 3.2 | 0.00 | 0.00 | 0.00 | 70 | 1012.3 |
| 20260508231054 | 13 | 155 | 1.6 | 4.8 | 0.00 | 0.00 | 0.00 | 69 | 1012.2 |
| 20260508230826 | 13 | 155 | 1.6 | 4.8 | 0.00 | 0.00 | 0.00 | 69 | 1012.2 |
| 20260508230054 | 13 | 221 | 3.2 | 11.3 | 0.00 | 0.00 | 0.00 | 69 | 1012.2 |
| 20260508225554 | 13 | 221 | 4.8 | 14.5 | 0.00 | 0.00 | 0.00 | 68 | 1012.2 |
| 20260508225055 | 13 | 217 | 4.8 | 14.5 | 0.00 | 0.00 | 0.00 | 68 | 1012.2 |
| 20260508224552 | 13 | 173 | 4.8 | 14.5 | 0.00 | 0.00 | 0.00 | 68 | 1012.2 |
| 20260508224052 | 13 | 213 | 3.2 | 8.0 | 0.00 | 0.00 | 0.00 | 68 | 1012.2 |
| 20260508223553 | 13 | 182 | 3.2 | 9.7 | 0.00 | 0.00 | 0.00 | 68 | 1012.2 |
| 20260508223051 | 13 | 182 | 3.2 | 9.7 | 0.00 | 0.00 | 0.00 | 68 | 1012.3 |
| 20260508222553 | 13 | 175 | 3.2 | 14.5 | 0.00 | 0.00 | 0.00 | 67 | 1012.2 |
| 20260508222051 | 13 | 173 | 4.8 | 14.5 | 0.00 | 0.00 | 0.00 | 66 | 1012.1 |
| 20260508221552 | 13 | 206 | 3.2 | 9.7 | 0.00 | 0.00 | 0.00 | 66 | 1012.2 |
| 20260508221054 | 13 | 148 | 3.2 | 12.9 | 0.00 | 0.00 | 0.00 | 66 | 1012.2 |
| 20260508220548 | 13 | 190 | 4.8 | 14.5 | 0.00 | 0.00 | 0.00 | 66 | 1012.2 |
| 20260508220042 | 13 | 183 | 4.8 | 14.5 | 0.00 | 0.00 | 0.00 | 65 | 1012.2 |
| 20260508215536 | 13 | 204 | 3.2 | 9.7 | 0.00 | 0.00 | 0.00 | 65 | 1012.3 |
| 20260508215031 | 13 | 232 | 3.2 | 11.3 | 0.00 | 0.00 | 0.00 | 64 | 1012.3 |
| 20260508214809 | 13 | 205 | 3.2 | 9.7 | 0.00 | 0.00 | 0.00 | 64 | 1012.2 |
| 20260508214532 | 13 | 189 | 3.2 | 11.3 | 0.00 | 0.00 | 0.00 | 64 | 1012.2 |
| 20260508213803 | 13 | 210 | 3.2 | 11.3 | 0.00 | 0.00 | 0.00 | 64 | 1012.3 |
| 20260508213032 | 13 | 173 | 1.6 | 11.3 | 0.00 | 0.00 | 0.00 | 64 | 1012.4 |
| 20260508212533 | 14 | 198 | 3.2 | 11.3 | 0.00 | 0.00 | 0.00 | 63 | 1012.4 |
| 20260508212033 | 14 | 281 | 3.2 | 14.5 | 0.00 | 0.00 | 0.00 | 63 | 1012.3 |
| 20260508211532 | 14 | 276 | 4.8 | 14.5 | 0.00 | 0.00 | 0.00 | 62 | 1012.3 |
| 20260508211030 | 14 | 327 | 4.8 | 14.5 | 0.00 | 0.00 | 0.00 | 62 | 1012.3 |
| 20260508210530 | 14 | 213 | 6.4 | 16.1 | 0.00 | 0.00 | 0.00 | 61 | 1012.3 |
| 20260508210300 | 14 | 253 | 4.8 | 22.5 | 0.00 | 0.00 | 0.00 | 61 | 1012.4 |
| 20260508205530 | 14 | 279 | 4.8 | 22.5 | 0.00 | 0.00 | 0.00 | 62 | 1012.3 |
| 20260508205032 | 14 | 168 | 4.8 | 16.1 | 0.00 | 0.00 | 0.00 | 62 | 1012.3 |
| 20260508204528 | 15 | 154 | 6.4 | 17.7 | 0.00 | 0.00 | 0.00 | 63 | 1012.3 |
| 20260508204028 | 15 | 236 | 8.0 | 20.9 | 0.00 | 0.00 | 0.00 | 63 | 1012.2 |
| 20260508203532 | 15 | 178 | 6.4 | 17.7 | 0.00 | 0.00 | 0.00 | 65 | 1012.0 |
| 20260508203528 | 15 | 228 | 6.4 | 20.9 | 0.00 | 0.00 | 0.00 | 63 | 1012.0 |
| 20260508202523 | 15 | 161 | 6.4 | 22.5 | 0.00 | 0.00 | 0.00 | 64 | 1012.0 |
| 20260508202017 | 14 | 234 | 8.0 | 22.5 | 0.00 | 0.00 | 0.00 | 64 | 1012.0 |
| 20260508201511 | 14 | 182 | 6.4 | 17.7 | 0.00 | 0.00 | 0.00 | 64 | 1011.9 |
| 20260508201237 | 14 | 184 | 6.4 | 17.7 | 0.00 | 0.00 | 0.00 | 63 | 1011.8 |
| 20260508200459 | 14 | 154 | 6.4 | 16.1 | 0.00 | 0.00 | 0.00 | 63 | 1012.1 |
| 20260508195953 | 14 | 204 | 6.4 | 17.7 | 0.00 | 0.00 | 0.00 | 63 | 1012.2 |
| 20260508195453 | 13 | 252 | 4.8 | 17.7 | 0.00 | 0.00 | 0.00 | 64 | 1012.2 |
| 20260508195223 | 13 | 219 | 3.2 | 16.1 | 0.00 | 0.00 | 0.00 | 63 | 1012.1 |
| 20260508194452 | 13 | 288 | 3.2 | 12.9 | 0.00 | 0.00 | 0.00 | 64 | 1012.2 |
| 20260508193949 | 13 | 223 | 4.8 | 12.9 | 0.00 | 0.00 | 0.00 | 63 | 1012.0 |
| 20260508193449 | 14 | 183 | 4.8 | 14.5 | 0.00 | 0.00 | 0.00 | 63 | 1011.8 |
| 20260508193220 | 14 | 200 | 4.8 | 19.3 | 0.00 | 0.00 | 0.00 | 64 | 1011.8 |
| 20260508192450 | 14 | 207 | 4.8 | 19.3 | 0.00 | 0.00 | 0.00 | 63 | 1011.9 |
| 20260508191950 | 15 | 183 | 6.4 | 16.1 | 0.00 | 0.00 | 0.00 | 62 | 1011.8 |
| 20260508191719 | 15 | 240 | 6.4 | 17.7 | 0.00 | 0.00 | 0.00 | 60 | 1011.7 |
| 20260508190947 | 15 | 238 | 6.4 | 17.7 | 0.00 | 0.00 | 0.00 | 58 | 1011.7 |
| 20260508190447 | 15 | 182 | 6.4 | 25.7 | 0.00 | 0.00 | 0.00 | 57 | 1011.6 |
| 20260508185947 | 15 | 230 | 8.0 | 25.7 | 0.00 | 0.00 | 0.00 | 58 | 1011.5 |
| 20260508185446 | 15 | 198 | 8.0 | 22.5 | 0.00 | 0.00 | 0.00 | 56 | 1011.4 |
| 20260508184946 | 15 | 218 | 8.0 | 27.4 | 0.00 | 0.00 | 0.00 | 54 | 1011.4 |
| 20260508184717 | 15 | 210 | 8.0 | 27.4 | 0.00 | 0.00 | 0.00 | 54 | 1011.4 |
| 20260508184217 | 16 | 261 | 6.4 | 22.5 | 0.00 | 0.00 | 0.00 | 54 | 1011.5 |
| 20260508183441 | 16 | 218 | 8.0 | 22.5 | 0.00 | 0.00 | 0.00 | 52 | 1011.5 |
| 20260508182935 | 16 | 285 | 8.0 | 19.3 | 0.00 | 0.00 | 0.00 | 52 | 1011.5 |
| 20260508182429 | 16 | 227 | 6.4 | 20.9 | 0.00 | 0.00 | 0.00 | 54 | 1011.6 |
| 20260508182154 | 16 | 220 | 6.4 | 20.9 | 0.00 | 0.00 | 0.00 | 52 | 1011.7 |
| 20260508181417 | 16 | 259 | 8.0 | 27.4 | 0.00 | 0.00 | 0.00 | 51 | 1011.7 |
| 20260508180911 | 16 | 280 | 9.7 | 27.4 | 0.00 | 0.00 | 0.00 | 53 | 1011.7 |
| 20260508180405 | 16 | 216 | 6.4 | 19.3 | 0.00 | 0.00 | 0.00 | 49 | 1011.7 |
| 20260508180131 | 16 | 198 | 6.4 | 24.1 | 0.00 | 0.00 | 0.00 | 48 | 1011.7 |
| 20260508175352 | 16 | 234 | 6.4 | 22.5 | 0.00 | 0.00 | 0.00 | 49 | 1011.7 |
| 20260508174847 | 16 | 234 | 8.0 | 24.1 | 0.00 | 0.00 | 0.00 | 49 | 1011.6 |
| 20260508174341 | 17 | 226 | 8.0 | 20.9 | 0.00 | 0.00 | 0.00 | 47 | 1011.6 |
| 20260508173835 | 16 | 155 | 8.0 | 20.9 | 0.00 | 0.00 | 0.00 | 50 | 1011.6 |
| 20260508173328 | 16 | 180 | 8.0 | 32.2 | 0.00 | 0.00 | 0.00 | 49 | 1011.7 |
| 20260508173053 | 17 | 234 | 8.0 | 32.2 | 0.00 | 0.00 | 0.00 | 48 | 1011.8 |
| 20260508172317 | 17 | 132 | 8.0 | 20.9 | 0.00 | 0.00 | 0.00 | 47 | 1011.8 |
| 20260508171810 | 17 | 238 | 6.4 | 20.9 | 0.00 | 0.00 | 0.00 | 46 | 1011.9 |
| 20260508171304 | 17 | 246 | 8.0 | 29.0 | 0.00 | 0.00 | 0.00 | 49 | 1011.9 |
| 20260508170758 | 17 | 275 | 9.7 | 29.0 | 0.00 | 0.00 | 0.00 | 45 | 1011.8 |
| 20260508170252 | 17 | 287 | 8.0 | 22.5 | 0.00 | 0.00 | 0.00 | 45 | 1011.8 |
| 20260508165746 | 17 | 216 | 8.0 | 22.5 | 0.00 | 0.00 | 0.00 | 49 | 1011.9 |
| 20260508165513 | 16 | 194 | 9.7 | 30.6 | 0.00 | 0.00 | 0.00 | 52 | 1012.1 |
| 20260508164735 | 16 | 225 | 8.0 | 30.6 | 0.00 | 0.00 | 0.00 | 50 | 1012.0 |
| 20260508164228 | 16 | 213 | 8.0 | 19.3 | 0.00 | 0.00 | 0.00 | 52 | 1012.1 |
| 20260508163723 | 17 | 210 | 8.0 | 19.3 | 0.00 | 0.00 | 0.00 | 52 | 1012.2 |
| 20260508163217 | 17 | 184 | 8.0 | 19.3 | 0.00 | 0.00 | 0.00 | 53 | 1012.1 |
| 20260508162711 | 17 | 204 | 8.0 | 22.5 | 0.00 | 0.00 | 0.00 | 54 | 1012.2 |
| 20260508162205 | 17 | 230 | 8.0 | 22.5 | 0.00 | 0.00 | 0.00 | 50 | 1012.1 |
| 20260508161659 | 16 | 164 | 6.4 | 20.9 | 0.00 | 0.00 | 0.00 | 54 | 1012.1 |
| 20260508161425 | 16 | 171 | 6.4 | 20.9 | 0.00 | 0.00 | 0.00 | 54 | 1012.2 |
| 20260508160647 | 17 | 180 | 8.0 | 27.4 | 0.00 | 0.00 | 0.00 | 53 | 1012.3 |
| 20260508160141 | 17 | 251 | 8.0 | 27.4 | 0.00 | 0.00 | 0.00 | 51 | 1012.3 |
| 20260508155635 | 18 | 225 | 6.4 | 19.3 | 0.00 | 0.00 | 0.00 | 42 | 1012.4 |
| 20260508155128 | 18 | 306 | 6.4 | 19.3 | 0.00 | 0.00 | 0.00 | 39 | 1012.3 |
| 20260508154622 | 17 | 235 | 4.8 | 14.5 | 0.00 | 0.00 | 0.00 | 51 | 1012.4 |
| 20260508154116 | 17 | 153 | 4.8 | 16.1 | 0.00 | 0.00 | 0.00 | 43 | 1012.5 |
| 20260508153843 | 17 | 225 | 6.4 | 17.7 | 0.00 | 0.00 | 0.00 | 48 | 1012.5 |
| 20260508153105 | 17 | 216 | 4.8 | 16.1 | 0.00 | 0.00 | 0.00 | 53 | 1012.4 |
| 20260508152559 | 17 | 279 | 6.4 | 20.9 | 0.00 | 0.00 | 0.00 | 54 | 1012.5 |
| 20260508152323 | 16 | 195 | 8.0 | 20.9 | 0.00 | 0.00 | 0.00 | 56 | 1012.5 |
| 20260508151818 | 16 | 123 | 6.4 | 20.9 | 0.00 | 0.00 | 0.00 | 56 | 1012.5 |
| 20260508151041 | 17 | 214 | 6.4 | 22.5 | 0.00 | 0.00 | 0.00 | 53 | 1012.6 |
| 20260508150535 | 17 | 232 | 6.4 | 22.5 | 0.00 | 0.00 | 0.00 | 50 | 1012.7 |
| 20260508150300 | 17 | 284 | 4.8 | 16.1 | 0.00 | 0.00 | 0.00 | 42 | 1012.6 |
| 20260508145523 | 17 | 279 | 4.8 | 16.1 | 0.00 | 0.00 | 0.00 | 36 | 1012.7 |
| 20260508145017 | 17 | 238 | 4.8 | 14.5 | 0.00 | 0.00 | 0.00 | 37 | 1012.6 |
| 20260508144511 | 17 | 232 | 3.2 | 12.9 | 0.00 | 0.00 | 0.00 | 38 | 1012.7 |
| 20260508144004 | 17 | 291 | 4.8 | 17.7 | 0.00 | 0.00 | 0.00 | 38 | 1012.7 |
| 20260508143458 | 17 | 241 | 4.8 | 17.7 | 0.00 | 0.00 | 0.00 | 40 | 1012.6 |
| 20260508142952 | 16 | 232 | 4.8 | 12.9 | 0.00 | 0.00 | 0.00 | 41 | 1012.5 |
| 20260508142447 | 16 | 251 | 4.8 | 14.5 | 0.00 | 0.00 | 0.00 | 44 | 1012.5 |
| 20260508142057 | 16 | 230 | 3.2 | 9.7 | 0.00 | 0.00 | 0.00 | 48 | 1012.5 |
| 20260508141951 | 16 | 238 | 3.2 | 9.7 | 0.00 | 0.00 | 0.00 | 46 | 1012.5 |
| 20260508141946 | 16 | 235 | 3.2 | 14.5 | 0.00 | 0.00 | 0.00 | 46 | 1012.5 |
| 20260508140655 | 16 | 308 | 3.2 | 9.7 | 0.00 | 0.00 | 0.00 | 46 | 1012.5 |
| 20260508135917 | 16 | 238 | 3.2 | 9.7 | 0.00 | 0.00 | 0.00 | 47 | 1012.6 |
| 20260508135411 | 16 | 280 | 3.2 | 9.7 | 0.00 | 0.00 | 0.00 | 47 | 1012.6 |
| 20260508134904 | 16 | 303 | 3.2 | 17.7 | 0.00 | 0.00 | 0.00 | 50 | 1012.7 |
| 20260508134358 | 16 | 9 | 4.8 | 17.7 | 0.00 | 0.00 | 0.00 | 51 | 1012.7 |
| 20260508133854 | 15 | 42 | 3.2 | 11.3 | 0.00 | 0.00 | 0.00 | 53 | 1012.8 |
| 20260508133625 | 15 | 263 | 3.2 | 9.7 | 0.00 | 0.00 | 0.00 | 51 | 1012.7 |
| 20260508132852 | 15 | 286 | 3.2 | 19.3 | 0.00 | 0.00 | 0.00 | 54 | 1012.8 |
| 20260508132350 | 15 | 236 | 3.2 | 19.3 | 0.00 | 0.00 | 0.00 | 54 | 1012.9 |
| 20260508131850 | 15 | 22 | 4.8 | 17.7 | 0.00 | 0.00 | 0.00 | 55 | 1012.9 |
| 20260508131350 | 15 | 191 | 4.8 | 17.7 | 0.00 | 0.00 | 0.00 | 54 | 1012.9 |
| 20260508131122 | 15 | 254 | 3.2 | 9.7 | 0.00 | 0.00 | 0.00 | 53 | 1012.9 |
| 20260508130348 | 15 | 294 | 3.2 | 14.5 | 0.00 | 0.00 | 0.00 | 56 | 1012.9 |
| 20260508125845 | 15 | 245 | 4.8 | 16.1 | 0.00 | 0.00 | 0.00 | 57 | 1012.9 |
| 20260508125346 | 14 | 222 | 4.8 | 16.1 | 0.00 | 0.00 | 0.00 | 56 | 1012.9 |
| 20260508124848 | 14 | 287 | 3.2 | 11.3 | 0.00 | 0.00 | 0.00 | 58 | 1013.0 |
| 20260508124616 | 14 | 18 | 3.2 | 11.3 | 0.00 | 0.00 | 0.00 | 61 | 1012.9 |
| 20260508123847 | 14 | 305 | 3.2 | 11.3 | 0.00 | 0.00 | 0.00 | 61 | 1012.9 |
| 20260508123345 | 13 | 259 | 3.2 | 12.9 | 0.00 | 0.00 | 0.00 | 66 | 1012.9 |
| 20260508122842 | 12 | 268 | 3.2 | 12.9 | 0.00 | 0.00 | 0.00 | 69 | 1012.9 |
| 20260508122343 | 12 | 227 | 3.2 | 11.3 | 0.00 | 0.00 | 0.00 | 70 | 1012.8 |
| 20260508121841 | 11 | 225 | 3.2 | 11.3 | 0.00 | 0.00 | 0.00 | 70 | 1012.8 |
| 20260508121342 | 11 | 257 | 3.2 | 14.5 | 0.00 | 0.00 | 0.00 | 72 | 1012.7 |
| 20260508121337 | 11 | 275 | 3.2 | 14.5 | 0.00 | 0.00 | 0.00 | 74 | 1012.8 |
| 20260508120328 | 10 | 223 | 3.2 | 9.7 | 0.00 | 0.00 | 0.00 | 75 | 1012.7 |
| 20260508115823 | 10 | 235 | 1.6 | 9.7 | 0.00 | 0.00 | 0.00 | 78 | 1012.7 |
| 20260508115317 | 10 | 277 | 1.6 | 4.8 | 0.00 | 0.03 | 0.00 | 79 | 1012.7 |
| 20260508114810 | 10 | 277 | 1.6 | 6.4 | 0.00 | 0.03 | 0.00 | 80 | 1012.7 |
| 20260508114304 | 9 | 277 | 1.6 | 6.4 | 0.00 | 0.03 | 0.00 | 81 | 1012.7 |
| 20260508113759 | 9 | 310 | 1.6 | 6.4 | 0.00 | 0.03 | 0.00 | 82 | 1012.7 |
| 20260508113252 | 9 | 309 | 1.6 | 6.4 | 0.00 | 0.03 | 0.00 | 83 | 1012.7 |
| 20260508112746 | 8 | 283 | 1.6 | 4.8 | 0.00 | 0.03 | 0.00 | 84 | 1012.6 |
| 20260508112240 | 8 | 284 | 1.6 | 6.4 | 0.00 | 0.03 | 0.00 | 84 | 1012.5 |
| 20260508111734 | 8 | 283 | 1.6 | 6.4 | 0.00 | 0.03 | 0.00 | 85 | 1012.4 |
| 20260508111228 | 8 | 321 | 0.0 | 4.8 | 0.00 | 0.03 | 0.00 | 85 | 1012.3 |
| 20260508110723 | 8 | 321 | 0.0 | 4.8 | 0.00 | 0.03 | 0.00 | 85 | 1012.3 |
| 20260508110448 | 8 | 321 | 0.0 | 4.8 | 0.00 | 0.03 | 0.00 | 84 | 1012.2 |
| 20260508105710 | 7 | 331 | 0.0 | 3.2 | 0.00 | 0.03 | 0.00 | 84 | 1012.1 |
| 20260508105205 | 7 | 331 | 0.0 | 3.2 | 0.00 | 0.03 | 0.00 | 84 | 1012.0 |
| 20260508104659 | 7 | 331 | 1.6 | 8.0 | 0.00 | 0.03 | 0.00 | 83 | 1012.0 |
| 20260508104429 | 7 | 331 | 1.6 | 8.0 | 0.00 | 0.03 | 0.00 | 83 | 1012.0 |
| 20260508103930 | 7 | 327 | 1.6 | 6.4 | 0.00 | 0.03 | 0.00 | 83 | 1011.9 |
| 20260508103159 | 7 | 327 | 1.6 | 4.8 | 0.00 | 0.05 | 0.00 | 83 | 1012.0 |
| 20260508102657 | 7 | 326 | 1.6 | 4.8 | 0.00 | 0.08 | 0.00 | 83 | 1012.1 |
| 20260508102425 | 7 | 327 | 0.0 | 4.8 | 0.00 | 0.10 | 0.00 | 82 | 1012.0 |
| 20260508101655 | 7 | 324 | 0.0 | 4.8 | 0.00 | 0.13 | 0.00 | 82 | 1011.9 |
| 20260508101155 | 7 | 324 | 0.0 | 4.8 | 0.00 | 0.13 | 0.00 | 82 | 1011.9 |
| 20260508100925 | 7 | 324 | 0.0 | 4.8 | 0.00 | 0.15 | 0.00 | 82 | 1011.8 |
| 20260508100152 | 7 | 324 | 0.0 | 4.8 | 0.00 | 0.15 | 0.00 | 82 | 1011.7 |
| 20260508095649 | 7 | 324 | 0.0 | 4.8 | 0.00 | 0.15 | 0.00 | 82 | 1011.8 |
| 20260508095147 | 7 | 350 | 0.0 | 3.2 | 0.00 | 0.15 | 0.00 | 81 | 1011.8 |
| 20260508094649 | 7 | 350 | 0.0 | 1.6 | 0.00 | 0.15 | 0.00 | 81 | 1011.7 |
| 20260508094148 | 7 | 350 | 0.0 | 6.4 | 0.00 | 0.15 | 0.00 | 81 | 1011.5 |
| 20260508093647 | 7 | 351 | 1.6 | 6.4 | 0.00 | 0.15 | 0.00 | 81 | 1011.5 |
| 20260508093147 | 8 | 350 | 1.6 | 6.4 | 0.00 | 0.15 | 0.00 | 81 | 1011.4 |
| 20260508092646 | 8 | 350 | 1.6 | 6.4 | 0.00 | 0.15 | 0.00 | 81 | 1011.2 |
| 20260508092145 | 8 | 350 | 1.6 | 8.0 | 0.00 | 0.15 | 0.00 | 81 | 1011.2 |
| 20260508091918 | 8 | 350 | 3.2 | 9.7 | 0.00 | 0.15 | 0.00 | 82 | 1011.2 |
| 20260508091141 | 8 | 355 | 3.2 | 9.7 | 0.00 | 0.15 | 0.00 | 82 | 1011.2 |
| 20260508091136 | 8 | 355 | 1.6 | 8.0 | 0.00 | 0.18 | 0.00 | 82 | 1011.2 |
| 20260508090128 | 7 | 355 | 1.6 | 12.9 | 0.00 | 0.18 | 0.00 | 83 | 1011.3 |
| 20260508085628 | 7 | 355 | 3.2 | 12.9 | 0.00 | 0.18 | 0.00 | 83 | 1011.3 |
| 20260508085125 | 7 | 355 | 3.2 | 9.7 | 0.00 | 0.18 | 0.00 | 83 | 1011.2 |
| 20260508084625 | 7 | 355 | 4.8 | 16.1 | 0.00 | 0.18 | 0.00 | 84 | 1011.2 |
| 20260508084125 | 7 | 346 | 8.0 | 17.7 | 0.00 | 0.18 | 0.00 | 84 | 1011.2 |
| 20260508083625 | 7 | 341 | 6.4 | 17.7 | 0.00 | 0.18 | 0.00 | 84 | 1011.2 |
| 20260508083125 | 7 | 340 | 6.4 | 17.7 | 0.00 | 0.20 | 0.00 | 85 | 1011.2 |
| 20260508082626 | 7 | 351 | 6.4 | 17.7 | 0.00 | 0.20 | 0.00 | 85 | 1011.2 |
| 20260508082126 | 7 | 351 | 6.4 | 17.7 | 0.00 | 0.20 | 0.00 | 85 | 1011.2 |
| 20260508081627 | 7 | 342 | 6.4 | 17.7 | 0.00 | 0.20 | 0.00 | 86 | 1011.3 |
| 20260508081126 | 7 | 346 | 8.0 | 22.5 | 0.00 | 0.20 | 0.00 | 86 | 1011.3 |
| 20260508080626 | 7 | 342 | 8.0 | 22.5 | 0.00 | 0.20 | 0.00 | 86 | 1011.4 |
| 20260508080127 | 7 | 9 | 6.4 | 17.7 | 0.00 | 0.20 | 0.00 | 87 | 1011.5 |
| 20260508075627 | 7 | 9 | 4.8 | 16.1 | 0.00 | 0.20 | 0.00 | 87 | 1011.5 |
| 20260508074626 | 7 | 313 | 6.4 | 24.1 | 0.00 | 0.23 | 0.00 | 88 | 1011.6 |
| 20260508074126 | 7 | 0 | 9.7 | 24.1 | 0.00 | 0.23 | 0.00 | 88 | 1011.4 |
| 20260508073620 | 6 | 355 | 11.3 | 30.6 | 0.00 | 0.23 | 0.00 | 89 | 1011.4 |
| 20260508073114 | 6 | 5 | 9.7 | 30.6 | 0.00 | 0.23 | 0.00 | 89 | 1011.4 |
| 20260508072839 | 6 | 350 | 6.4 | 24.1 | 0.00 | 0.23 | 0.00 | 89 | 1011.2 |
| 20260508072103 | 6 | 312 | 8.0 | 24.1 | 0.00 | 0.25 | 0.00 | 89 | 1011.1 |
| 20260508071557 | 6 | 0 | 6.4 | 24.1 | 0.00 | 0.28 | 0.00 | 89 | 1011.2 |
| 20260508071050 | 6 | 0 | 3.2 | 19.3 | 0.00 | 0.36 | 0.00 | 89 | 1011.3 |
| 20260508070545 | 6 | 300 | 1.6 | 16.1 | 0.00 | 0.56 | 0.00 | 89 | 1011.4 |
| 20260508070039 | 6 | 329 | 1.6 | 8.0 | 0.00 | 0.61 | 0.00 | 88 | 1011.3 |
| 20260508065803 | 6 | 202 | 0.0 | 1.6 | 0.00 | 0.64 | 0.00 | 88 | 1011.3 |
| 20260508065027 | 6 | 202 | 0.0 | 1.6 | 0.00 | 0.64 | 0.00 | 88 | 1011.1 |
| 20260508064521 | 6 | 202 | 0.0 | 0.0 | 0.00 | 0.64 | 0.00 | 88 | 1010.7 |
| 20260508064014 | 6 | 202 | 0.0 | 0.0 | 0.00 | 0.64 | 0.00 | 88 | 1010.3 |
| 20260508063509 | 6 | 202 | 0.0 | 0.0 | 0.00 | 0.64 | 0.00 | 88 | 1010.1 |
| 20260508063005 | 6 | 202 | 0.0 | 0.0 | 0.00 | 0.64 | 0.00 | 88 | 1009.8 |
| 20260508062959 | 6 | 202 | 0.0 | 0.0 | 0.00 | 0.64 | 0.00 | 87 | 1010.0 |
| 20260508061951 | 6 | 202 | 0.0 | 0.0 | 0.00 | 0.64 | 0.00 | 87 | 1010.1 |
| 20260508061445 | 6 | 202 | 0.0 | 0.0 | 0.00 | 0.64 | 0.00 | 87 | 1009.8 |
| 20260508060939 | 6 | 202 | 0.0 | 1.6 | 0.00 | 0.64 | 0.00 | 87 | 1009.8 |
| 20260508060432 | 6 | 202 | 0.0 | 1.6 | 0.00 | 0.64 | 0.00 | 87 | 1009.7 |
| 20260508055926 | 6 | 202 | 0.0 | 0.0 | 0.00 | 0.64 | 0.00 | 87 | 1009.6 |
| 20260508055421 | 6 | 202 | 0.0 | 0.0 | 0.00 | 0.64 | 0.00 | 87 | 1009.4 |
| 20260508055146 | 6 | 202 | 0.0 | 1.6 | 0.00 | 0.64 | 0.00 | 87 | 1009.6 |
| 20260508054408 | 6 | 202 | 0.0 | 1.6 | 0.00 | 0.64 | 0.00 | 86 | 1009.6 |
| 20260508053902 | 7 | 202 | 0.0 | 0.0 | 0.00 | 0.64 | 0.00 | 86 | 1009.7 |
| 20260508053356 | 7 | 202 | 0.0 | 0.0 | 0.00 | 0.64 | 0.00 | 86 | 1009.7 |
| 20260508052858 | 7 | 202 | 0.0 | 0.0 | 0.00 | 0.64 | 0.00 | 86 | 1009.7 |
| 20260508052353 | 7 | 202 | 0.0 | 0.0 | 0.00 | 0.64 | 0.00 | 86 | 1009.7 |
| 20260508051853 | 7 | 202 | 0.0 | 0.0 | 0.00 | 0.64 | 0.00 | 86 | 1009.7 |
| 20260508051626 | 7 | 202 | 0.0 | 0.0 | 0.00 | 0.64 | 0.00 | 86 | 1009.7 |
| 20260508051124 | 7 | 202 | 0.0 | 3.2 | 0.00 | 0.64 | 0.00 | 86 | 1009.7 |
| 20260508050621 | 7 | 202 | 0.0 | 3.2 | 0.00 | 0.64 | 0.00 | 86 | 1009.5 |
| 20260508050508 | 7 | 202 | 0.0 | 0.0 | 0.00 | 0.64 | 0.00 | 85 | 1009.5 |
| 20260508045352 | 7 | 202 | 0.0 | 0.0 | 0.00 | 0.64 | 0.00 | 85 | 1009.4 |
| 20260508045119 | 7 | 202 | 0.0 | 0.0 | 0.00 | 0.64 | 0.00 | 85 | 1009.5 |
| 20260508044346 | 7 | 202 | 0.0 | 0.0 | 0.00 | 0.64 | 0.00 | 84 | 1009.6 |
| 20260508043847 | 7 | 202 | 0.0 | 0.0 | 0.00 | 0.64 | 0.00 | 84 | 1009.8 |
| 20260508043346 | 7 | 202 | 0.0 | 0.0 | 0.00 | 0.64 | 0.00 | 84 | 1009.8 |
| 20260508042848 | 8 | 202 | 0.0 | 0.0 | 0.00 | 0.64 | 0.00 | 84 | 1009.8 |
| 20260508042347 | 8 | 202 | 0.0 | 3.2 | 0.00 | 0.64 | 0.00 | 83 | 1009.8 |
| 20260508041845 | 8 | 202 | 0.0 | 3.2 | 0.00 | 0.64 | 0.00 | 83 | 1009.9 |
| 20260508041342 | 8 | 202 | 0.0 | 0.0 | 0.00 | 0.64 | 0.00 | 83 | 1009.8 |
| 20260508040840 | 8 | 202 | 0.0 | 0.0 | 0.00 | 0.64 | 0.00 | 83 | 1009.8 |
| 20260508040340 | 8 | 202 | 0.0 | 0.0 | 0.00 | 0.64 | 0.00 | 82 | 1009.7 |
| 20260508035840 | 8 | 202 | 0.0 | 0.0 | 0.00 | 0.64 | 0.64 | 82 | 1009.7 |
| 20260508035334 | 8 | 202 | 0.0 | 0.0 | 0.00 | 0.64 | 0.64 | 82 | 1009.7 |